[[{"header":{"parameterUnit":"m.s-1","parameterCategory":2,"la1":30.2991,"la2":30.254,"lo1":-89.0895,"lo2":-89.0444,"dy":0.0017,"dx":0.0017,"nx":28,"ny":28,"refTime":"2023-08-26T21:00:00:Z","depth":"0","parameterNumber":2,"parameterNumberName":"U-component_of_CURRENTS"},"data":[0,0,0,0,0,0,0,0,0,0,0,0,0,0,0,0,0,0,0,0,0,0,0,0,0,0,0,0,0,0,0,0,0,0,0,0,0,0,0,0,0,0,0,0,0,0,0,0,0,0,0,0,0,0,0,0,0,0,0.226,0.226,0,0.2295,0.2295,0.2296,0.2283,0.2282,0.2281,0.2281,0.2264,0.2264,0.2264,0,0,0,0,0,0,0,0,0,0,0,0,0,0.2242,0.2242,0.226,0.226,0.2261,0.2295,0.2296,0.2296,0.2283,0.2282,0.2281,0.228,0.2264,0.2264,0.2264,0,0,0,0,0,0,0,0,0,0,0,0,0,0.2261,0.2242,0.226,0.2258,0.2258,0.2295,0.2296,0.2296,0.2283,0.2282,0.2281,0.228,0.2263,0.2264,0.2264,0.2292,0,0,0.2266,0.2266,0,0,0,0,0,0,0,0,0.226,0.2262,0.2258,0.2258,0.2259,0.2283,0.2283,0.2292,0.2284,0.2274,0.2281,0.2279,0.2266,0.2266,0.2277,0.2291,0.229,0.2266,0.2266,0.2266,0.2266,0,0,0,0,0,0,0,0.2259,0.2261,0.2274,0.2259,0.2259,0.2277,0.2277,0.2285,0.2276,0.2275,0.2274,0.2278,0.2266,0.2276,0.2276,0.229,0.2266,0.2266,0.2267,0.2267,0.2323,0.2324,0,0,0,0,0,0,0.2252,0.2259,0.2273,0.2275,0.2256,0.2278,0.2278,0.2277,0.2277,0.2276,0.2279,0.2277,0.2276,0.2276,0.2275,0.2304,0.2266,0.2267,0.2267,0.2321,0.2323,0.2324,0,0,0,0,0,0,0.2251,0.2253,0.2272,0.2268,0.2272,0.2279,0.2277,0.2278,0.229,0.228,0.2278,0.229,0.2275,0.2275,0.2278,0.2303,0.2267,0.2267,0.232,0.2322,0.2324,0.2363,0,0,0,0,0,0,0.2251,0.2252,0.2254,0.2267,0.2271,0.2297,0.2279,0.228,0.2294,0.2292,0.2289,0.2286,0.2274,0.2277,0.2278,0.2303,0.2268,0.2319,0.2321,0.2323,0.236,0.2366,0.2371,0,0,0,0,0,0.225,0.2254,0.2254,0.2256,0.2272,0.2298,0.2303,0.2304,0.2296,0.2309,0.2297,0.2286,0.2292,0.2278,0.2279,0.2305,0.2317,0.232,0.2323,0.2358,0.2365,0.2371,0,0,0,0,0,0,0.2244,0.2254,0.2253,0.2259,0.228,0.2296,0.2304,0.2312,0.2317,0.2306,0.2297,0.2294,0.2313,0.2303,0.2288,0.2329,0.2306,0.2309,0.2332,0.2339,0.2344,0.2346,0.2268,0,0,0,0,0,0.2246,0.2249,0.2268,0.2272,0.2281,0.2297,0.2309,0.2311,0.2316,0.2318,0.2316,0.2314,0.2329,0.2326,0.2335,0.2351,0.2345,0.237,0.2376,0.238,0.2383,0.2403,0.241,0.2333,0.2333,0.2333,0,0,0.2246,0.2249,0.2252,0.2271,0.2282,0.2302,0.23,0.2317,0.2331,0.2315,0.2327,0.2336,0.2339,0.2359,0.2367,0.2349,0.2398,0.2383,0.2387,0.2388,0.2407,0.2414,0.242,0.2335,0.2335,0.2334,0,0,0.2242,0.225,0.2251,0.227,0.2288,0.2305,0.2313,0.2334,0.2342,0.236,0.2358,0.238,0.2388,0.2402,0.2409,0.2452,0.2432,0.2455,0.2474,0.2493,0.25,0.2505,0.2498,0.2503,0.2448,0.2449,0.2449,0,0.2239,0.2241,0.2259,0.2268,0.2283,0.2308,0.2322,0.2343,0.2362,0.237,0.2363,0.2406,0.2414,0.2449,0.2465,0.2466,0.2458,0.2447,0.25,0.2505,0.251,0.2502,0.2506,0.2451,0.2451,0.245,0.245,0,0.2237,0.2245,0.2249,0.2267,0.2292,0.2308,0.234,0.2362,0.2377,0.2394,0.2433,0.2452,0.2474,0.2492,0.2491,0.2537,0.2513,0.251,0.2481,0.252,0.2509,0.2513,0.2454,0.2453,0.2452,0.2452,0,0,0.2211,0.2241,0.2241,0.2251,0.2291,0.231,0.2343,0.2382,0.2401,0.2432,0.2462,0.2509,0.2521,0.2532,0.2545,0.2568,0.2603,0.2551,0.2551,0.254,0.2622,0.2447,0.2434,0.2603,0.2604,0.2605,0.2596,0,0.2201,0.2214,0.2235,0.226,0.2275,0.2315,0.2345,0.2383,0.2416,0.2453,0.2493,0.2527,0.2535,0.2551,0.258,0.2605,0.2616,0.2604,0.259,0.2589,0.2426,0.2435,0.2283,0.2248,0.26,0.26,0.2601,0,0.2189,0.2199,0.2215,0.2256,0.2266,0.2287,0.2341,0.2371,0.2432,0.2456,0.2501,0.2532,0.2587,0.2586,0.2636,0.2622,0.2624,0.2637,0.2636,0.2461,0.2421,0.2269,0.2242,0.2177,0.2607,0.2606,0.2606,0,0.2162,0.2189,0.22,0.2213,0.2263,0.2276,0.2306,0.2364,0.2384,0.2457,0.2475,0.2547,0.2563,0.2608,0.2615,0.2636,0.2643,0.2675,0.2518,0.2505,0.2366,0.2337,0.2268,0.2701,0.2701,0.2701,0.2701,0,0.2148,0.2154,0.2184,0.219,0.2203,0.2249,0.2272,0.2315,0.2367,0.2383,0.2464,0.2477,0.2567,0.2576,0.2611,0.2542,0.2632,0.2513,0.2489,0.2371,0.2345,0.2272,0.2253,0.2701,0.2701,0.2701,0.2701,0,0.2119,0.2138,0.2146,0.2181,0.2189,0.2197,0.2233,0.2251,0.2305,0.2331,0.2351,0.2418,0.2418,0.2464,0.2512,0.2487,0.2375,0.2429,0.226,0.2215,0.2,0.1988,0.1788,0.1764,0.2281,0.2276,0.2272,0,0.2105,0.2106,0.2124,0.2119,0.2129,0.2144,0.2154,0.2211,0.2227,0.2276,0.2279,0.2288,0.227,0.2243,0.2204,0.2186,0.2177,0.2024,0.2039,0.1943,0.1917,0.1858,0.1853,0.1887,0.188,0.1875,0.187,0,0.2075,0.2078,0.2083,0.2062,0.2062,0.2063,0.2079,0.2078,0.2135,0.2142,0.2115,0.2103,0.2044,0.1934,0.1874,0.1858,0.1874,0.1908,0.1877,0.1637,0.1504,0.1482,0.1934,0.1822,0.1827,0.1831,0.1833,0.1835,0.2045,0.2025,0.2015,0.1986,0.1985,0.1954,0.192,0.1935,0.1913,0.1876,0.193,0.1838,0.1742,0.1624,0.1582,0.1391,0.1496,0.1366,0.1374,0.1334,0.1246,0.155,0.1361,0.1363,0.1365,0.1366,0.1368,0,0.1971,0.1948,0.1933,0.1881,0.1837,0.1864,0.1842,0.1785,0.1705,0.1689,0.1633,0.1448,0.1299,0.1216,0.1002,0.0901,0.0914,0.0874,0.082,0.0864,0.1191,0.111,0.0772,0.0772,0.0772,0.0772,0.0772,0.0772,0.1933,0.1867,0.1839,0.1726,0.1696,0.1603,0.1564,0.1496,0.1458,0.1286,0.1154,0.1105,0.0971,0.0714,0.0529,0.0522,0.0525,0.0395,0.0513,0.0795,0.0845,0.0893,0.0814,0.0419,0.0419,0.0146,0.0144,0.0142]},{"header":{"parameterUnit":"m.s-1","parameterCategory":2,"la1":30.2991,"la2":30.254,"lo1":-89.0895,"lo2":-89.0444,"dy":0.0017,"dx":0.0017,"nx":28,"ny":28,"refTime":"2023-08-26T21:00:00:Z","depth":"0","parameterNumber":3,"parameterNumberName":"V-component_of_CURRENTS"},"data":[0,0,0,0,0,0,0,0,0,0,0,0,0,0,0,0,0,0,0,0,0,0,0,0,0,0,0,0,0,0,0,0,0,0,0,0,0,0,0,0,0,0,0,0,0,0,0,0,0,0,0,0,0,0,0,0,0,0,0.0344,0.0344,0,0.0362,0.0362,0.0363,0.0361,0.0361,0.036,0.036,0.0361,0.0362,0.0362,0,0,0,0,0,0,0,0,0,0,0,0,0,0.03,0.0301,0.0344,0.0344,0.0344,0.0362,0.0362,0.0363,0.0361,0.0361,0.036,0.036,0.0361,0.0361,0.0362,0,0,0,0,0,0,0,0,0,0,0,0,0,0.0319,0.0301,0.0344,0.0345,0.0346,0.0362,0.0362,0.0363,0.0361,0.0361,0.036,0.036,0.0361,0.0361,0.0362,0.0374,0,0,0.0363,0.0363,0,0,0,0,0,0,0,0,0.0318,0.0321,0.0345,0.0345,0.0346,0.0359,0.0347,0.0365,0.0361,0.0356,0.036,0.036,0.0359,0.036,0.0365,0.0374,0.0374,0.0363,0.0364,0.0364,0.0364,0,0,0,0,0,0,0,0.0317,0.032,0.0351,0.0345,0.0346,0.0343,0.0345,0.0351,0.0359,0.0356,0.0356,0.0358,0.0359,0.0364,0.0364,0.0374,0.0363,0.0364,0.0364,0.0364,0.0389,0.039,0,0,0,0,0,0,0.0315,0.0319,0.0351,0.0352,0.033,0.0344,0.0347,0.0355,0.036,0.036,0.0358,0.0358,0.0364,0.0364,0.0364,0.0388,0.0364,0.0364,0.0364,0.0389,0.039,0.039,0,0,0,0,0,0,0.0314,0.0318,0.035,0.0335,0.0339,0.0345,0.0355,0.0356,0.0362,0.0361,0.0361,0.0364,0.0363,0.0364,0.0373,0.0387,0.0364,0.0365,0.0389,0.0389,0.039,0.0428,0,0,0,0,0,0,0.0313,0.0318,0.0325,0.0335,0.034,0.0365,0.0355,0.0356,0.0364,0.0364,0.0366,0.0366,0.0363,0.0372,0.0373,0.0387,0.0365,0.0388,0.0389,0.039,0.0426,0.043,0.0433,0,0,0,0,0,0.0312,0.0325,0.0325,0.0329,0.0349,0.0365,0.0368,0.037,0.0365,0.0373,0.0373,0.0366,0.0377,0.0373,0.0374,0.0389,0.0388,0.0389,0.039,0.0425,0.0429,0.0433,0,0,0,0,0,0,0.0309,0.0326,0.0327,0.0344,0.0355,0.0365,0.0373,0.0373,0.038,0.0379,0.0374,0.0374,0.0387,0.0381,0.0377,0.0397,0.038,0.0382,0.0407,0.0411,0.0414,0.0438,0.0366,0,0,0,0,0,0.0312,0.0327,0.0339,0.0353,0.0359,0.0366,0.0373,0.0376,0.0382,0.0385,0.0385,0.0386,0.0392,0.0396,0.0398,0.0413,0.0413,0.0421,0.0424,0.0427,0.0447,0.0457,0.0464,0.0393,0.0393,0.0393,0,0,0.0314,0.0326,0.0334,0.0354,0.0362,0.0381,0.037,0.0384,0.0401,0.0384,0.0404,0.0398,0.0398,0.0413,0.0418,0.0411,0.0444,0.0428,0.0431,0.0449,0.0459,0.0466,0.0472,0.0394,0.0393,0.0393,0,0,0.033,0.0338,0.0357,0.0369,0.0385,0.0392,0.0397,0.0408,0.0415,0.0433,0.0424,0.0432,0.0437,0.0446,0.0449,0.0474,0.046,0.0463,0.0504,0.0514,0.052,0.0526,0.0523,0.0528,0.0466,0.0466,0.0466,0,0.0332,0.0361,0.0364,0.0386,0.0402,0.0399,0.0425,0.0433,0.0446,0.0459,0.0443,0.0468,0.046,0.0493,0.0496,0.0485,0.0479,0.0489,0.0519,0.0525,0.053,0.0526,0.0531,0.0468,0.0468,0.0468,0.0468,0,0.0365,0.0387,0.04,0.0429,0.0445,0.0466,0.0479,0.0493,0.0496,0.0506,0.0534,0.0528,0.0547,0.0538,0.0525,0.0558,0.0538,0.0521,0.0512,0.054,0.0533,0.0538,0.0471,0.047,0.047,0.0469,0,0,0.0374,0.0416,0.0421,0.0447,0.0471,0.0492,0.052,0.0553,0.0584,0.0586,0.0631,0.063,0.0626,0.063,0.0614,0.062,0.0638,0.0586,0.0586,0.0589,0.065,0.0625,0.0628,0.0622,0.0624,0.0625,0.0626,0,0.0402,0.0454,0.0467,0.0518,0.0548,0.0559,0.0591,0.0618,0.0633,0.0672,0.0674,0.0703,0.0661,0.0674,0.0674,0.0652,0.0654,0.0639,0.0618,0.0618,0.0598,0.0634,0.0663,0.0666,0.0631,0.0631,0.0632,0,0.0436,0.0468,0.0523,0.0577,0.0592,0.0619,0.0678,0.0707,0.0749,0.0763,0.0789,0.0788,0.0808,0.0765,0.0754,0.0742,0.0704,0.068,0.0679,0.0653,0.0604,0.0635,0.0676,0.0683,0.0639,0.0638,0.0638,0,0.0456,0.051,0.0559,0.0576,0.0632,0.0661,0.0692,0.0735,0.0775,0.0826,0.086,0.0873,0.0889,0.0857,0.0798,0.0779,0.0778,0.0744,0.0689,0.0686,0.0708,0.0704,0.0763,0.0743,0.0743,0.0743,0.0743,0,0.0489,0.0528,0.0572,0.0601,0.0664,0.0691,0.076,0.079,0.0848,0.0909,0.091,0.0955,0.0911,0.09,0.0837,0.0782,0.0808,0.0715,0.0695,0.0718,0.0716,0.0719,0.0719,0.0743,0.0743,0.0743,0.0743,0,0.0511,0.0538,0.0597,0.0656,0.0677,0.0723,0.0799,0.085,0.0895,0.0978,0.1,0.1023,0.1007,0.0952,0.0901,0.0834,0.0794,0.0752,0.0775,0.0758,0.0706,0.0706,0.0756,0.0777,0.0704,0.0703,0.0703,0,0.053,0.0562,0.0632,0.0666,0.0694,0.076,0.081,0.0869,0.0927,0.1019,0.1066,0.1076,0.1092,0.1008,0.0906,0.0813,0.0797,0.076,0.0732,0.0728,0.0714,0.0722,0.0738,0.0769,0.077,0.077,0.077,0,0.0565,0.0587,0.0632,0.0696,0.075,0.082,0.0893,0.0946,0.1028,0.1093,0.1165,0.1185,0.1122,0.1052,0.0921,0.0846,0.0798,0.0758,0.0766,0.0791,0.0797,0.0799,0.0729,0.0772,0.0771,0.0771,0.0771,0.0771,0.0588,0.0617,0.0667,0.0727,0.079,0.0866,0.0922,0.1004,0.1094,0.1189,0.1214,0.1248,0.1184,0.1016,0.0927,0.0802,0.0802,0.0762,0.0766,0.0777,0.0799,0.0723,0.0732,0.0731,0.0731,0.0731,0.073,0,0.0603,0.0634,0.0693,0.0762,0.0823,0.086,0.0969,0.1027,0.1122,0.121,0.1263,0.126,0.1179,0.1069,0.0919,0.0843,0.0826,0.0801,0.0841,0.0858,0.0804,0.0808,0.0822,0.0822,0.0822,0.0822,0.0822,0.0822,0.0612,0.0653,0.0677,0.0765,0.0819,0.0899,0.0958,0.1053,0.1135,0.1213,0.1241,0.1255,0.1221,0.1069,0.0949,0.0901,0.0904,0.0872,0.087,0.0844,0.0842,0.0839,0.0843,0.0865,0.0865,0.0952,0.0953,0.0953]}],[{"header":{"parameterUnit":"m.s-1","parameterCategory":2,"la1":30.2991,"la2":30.254,"lo1":-89.0895,"lo2":-89.0444,"dy":0.0017,"dx":0.0017,"nx":28,"ny":28,"refTime":"2023-08-26T21:00:00:Z","depth":"2","parameterNumber":2,"parameterNumberName":"U-component_of_CURRENTS"},"data":[0,0,0,0,0,0,0,0,0,0,0,0,0,0,0,0,0,0,0,0,0,0,0,0,0,0,0,0,0,0,0,0,0,0,0,0,0,0,0,0,0,0,0,0,0,0,0,0,0,0,0,0,0,0,0,0,0,0,0.1588,0.1588,0,0.1594,0.1595,0.1595,0.1612,0.1613,0.1613,0.1613,0.1634,0.1634,0.1634,0,0,0,0,0,0,0,0,0,0,0,0,0,0.1615,0.1615,0.1588,0.1588,0.1588,0.1594,0.1595,0.1595,0.1612,0.1613,0.1613,0.1613,0.1634,0.1634,0.1634,0,0,0,0,0,0,0,0,0,0,0,0,0,0.1611,0.1614,0.1588,0.1597,0.1598,0.1594,0.1595,0.1595,0.1612,0.1613,0.1613,0.1614,0.1634,0.1634,0.1634,0.1627,0,0,0.1636,0.1636,0,0,0,0,0,0,0,0,0.1611,0.161,0.1595,0.1596,0.1597,0.1603,0.1612,0.1606,0.1612,0.1607,0.1613,0.1614,0.1624,0.1625,0.1626,0.1628,0.1629,0.1636,0.1636,0.1636,0.1636,0,0,0,0,0,0,0,0.1612,0.161,0.1591,0.1595,0.1596,0.1609,0.1609,0.1611,0.1613,0.1608,0.1609,0.1609,0.1625,0.1626,0.1627,0.1629,0.1636,0.1636,0.1636,0.1636,0.1676,0.1677,0,0,0,0,0,0,0.1608,0.161,0.1591,0.1591,0.1605,0.1608,0.1608,0.1601,0.1613,0.1615,0.1608,0.1609,0.1625,0.1626,0.1627,0.1675,0.1636,0.1636,0.1636,0.1675,0.1676,0.1677,0,0,0,0,0,0,0.1608,0.1606,0.159,0.1601,0.16,0.1607,0.1599,0.1601,0.1608,0.1613,0.1616,0.1614,0.1625,0.1627,0.1639,0.1674,0.1636,0.1637,0.1674,0.1675,0.1677,0.1735,0,0,0,0,0,0,0.1609,0.1605,0.1603,0.16,0.1599,0.1595,0.1598,0.16,0.1606,0.1608,0.1619,0.1621,0.1626,0.1639,0.164,0.1674,0.1637,0.1673,0.1675,0.1676,0.1732,0.1738,0.1743,0,0,0,0,0,0.161,0.1608,0.1603,0.1601,0.1594,0.1595,0.1596,0.1604,0.1606,0.1612,0.1621,0.1621,0.165,0.1639,0.164,0.1676,0.1672,0.1674,0.1676,0.1729,0.1737,0.1743,0,0,0,0,0,0,0.1618,0.1609,0.1604,0.1599,0.1598,0.1598,0.1608,0.1605,0.1615,0.1623,0.1625,0.1627,0.1656,0.1649,0.1637,0.169,0.1664,0.1666,0.1704,0.1711,0.1717,0.1712,0.1637,0,0,0,0,0,0.1617,0.1615,0.1606,0.1604,0.1606,0.1606,0.1608,0.1612,0.1617,0.1623,0.1636,0.1649,0.1663,0.1672,0.1683,0.1703,0.1696,0.1728,0.1734,0.1738,0.1735,0.176,0.1768,0.1683,0.1683,0.1683,0,0,0.162,0.1615,0.1614,0.1606,0.161,0.1612,0.161,0.1619,0.1624,0.1623,0.165,0.1668,0.1671,0.1704,0.1716,0.1704,0.1758,0.1741,0.1745,0.1738,0.1763,0.1772,0.1779,0.1685,0.1684,0.1684,0,0,0.1625,0.1622,0.1621,0.1625,0.1629,0.1627,0.1628,0.1638,0.1649,0.1662,0.1677,0.171,0.1722,0.1747,0.1752,0.1789,0.1786,0.1802,0.183,0.1856,0.1863,0.187,0.1867,0.1873,0.1806,0.1807,0.1807,0,0.163,0.162,0.1623,0.1628,0.1634,0.1632,0.1636,0.1643,0.1659,0.168,0.1676,0.1733,0.174,0.1786,0.1806,0.1804,0.1809,0.1807,0.1864,0.187,0.1876,0.1872,0.1877,0.181,0.1809,0.1809,0.1809,0,0.1631,0.163,0.1636,0.1636,0.1645,0.1651,0.1658,0.1682,0.1693,0.1705,0.1758,0.1777,0.1812,0.183,0.1825,0.1884,0.1871,0.1869,0.1849,0.1888,0.1881,0.1886,0.1814,0.1813,0.1812,0.1811,0,0,0.1622,0.1631,0.1633,0.1638,0.1651,0.1657,0.1683,0.1704,0.1725,0.1761,0.1797,0.1841,0.1869,0.1877,0.1899,0.1925,0.1968,0.1919,0.1919,0.1918,0.2014,0.1882,0.1874,0.1987,0.1989,0.199,0.1992,0,0.1618,0.1622,0.1631,0.1643,0.1646,0.1674,0.1692,0.1723,0.1746,0.1785,0.1829,0.1866,0.1879,0.1908,0.1941,0.1962,0.1984,0.1967,0.1973,0.1972,0.1853,0.1876,0.1714,0.1691,0.1996,0.1997,0.1997,0,0.1607,0.1613,0.162,0.1645,0.1652,0.1661,0.1707,0.1726,0.1784,0.1812,0.1873,0.1899,0.196,0.1952,0.2012,0.2005,0.2012,0.2022,0.2022,0.1878,0.1848,0.1702,0.1688,0.2005,0.2004,0.2004,0.2003,0,0.1588,0.1604,0.1608,0.1618,0.1647,0.1669,0.1687,0.174,0.1766,0.1836,0.1864,0.1936,0.1963,0.2005,0.2016,0.2028,0.2054,0.2069,0.1956,0.1946,0.1794,0.1768,0.2103,0.2103,0.2103,0.2103,0.2103,0,0.1571,0.158,0.1599,0.1606,0.1622,0.1655,0.1685,0.1723,0.1777,0.1802,0.1875,0.1897,0.1979,0.2,0.2021,0.1983,0.2058,0.1953,0.1939,0.1807,0.1783,0.2043,0.2037,0.2103,0.2103,0.2103,0.2103,0,0.1551,0.1562,0.1575,0.1604,0.161,0.1628,0.1672,0.1691,0.1752,0.1787,0.1812,0.1879,0.1897,0.1943,0.1987,0.1959,0.1956,0.1923,0.1742,0.1704,0.1834,0.183,0.181,0.1805,0.1801,0.1798,0.1795,0,0.1536,0.1539,0.1565,0.1568,0.1579,0.1606,0.1614,0.1674,0.1691,0.1757,0.1759,0.1798,0.1794,0.1793,0.1757,0.1744,0.1846,0.1577,0.1561,0.1816,0.1805,0.1808,0.1809,0.1393,0.1387,0.1382,0.1378,0,0.1517,0.1531,0.1538,0.1536,0.1542,0.1556,0.157,0.1576,0.1634,0.1652,0.1648,0.1651,0.1628,0.1521,0.1489,0.1466,0.1566,0.1475,0.1804,0.1476,0.1418,0.1409,0.1425,0.1336,0.134,0.1343,0.1346,0.1347,0.1498,0.1497,0.1498,0.1489,0.1497,0.1484,0.1459,0.1469,0.1467,0.1448,0.1497,0.1431,0.1419,0.1269,0.1203,0.114,0.1274,0.1227,0.1245,0.1267,0.1202,0.1139,0.0991,0.0993,0.0995,0.0997,0.0999,0,0.1457,0.1452,0.1445,0.1423,0.1394,0.1425,0.1405,0.1356,0.1296,0.1288,0.1259,0.1104,0.0999,0.0993,0.0822,0.0789,0.0816,0.0755,0.08,0.084,0.0877,0.0796,0.0476,0.0475,0.0473,0.0472,0,0,0.1438,0.1402,0.1385,0.1312,0.1297,0.1233,0.1202,0.1138,0.1105,0.1013,0.0943,0.0975,0.0969,0.0738,0.0678,0.0555,0.0705,0.0514,0.093,0.1026,0.1062,0.1136,0.1053,0,0,0,0,0]},{"header":{"parameterUnit":"m.s-1","parameterCategory":2,"la1":30.2991,"la2":30.254,"lo1":-89.0895,"lo2":-89.0444,"dy":0.0017,"dx":0.0017,"nx":28,"ny":28,"refTime":"2023-08-26T21:00:00:Z","depth":"2","parameterNumber":3,"parameterNumberName":"V-component_of_CURRENTS"},"data":[0,0,0,0,0,0,0,0,0,0,0,0,0,0,0,0,0,0,0,0,0,0,0,0,0,0,0,0,0,0,0,0,0,0,0,0,0,0,0,0,0,0,0,0,0,0,0,0,0,0,0,0,0,0,0,0,0,0,0.0187,0.0187,0,0.02,0.0201,0.0201,0.0204,0.0204,0.0204,0.0204,0.0213,0.0213,0.0214,0,0,0,0,0,0,0,0,0,0,0,0,0,0.0146,0.0147,0.0187,0.0187,0.0187,0.02,0.0201,0.0201,0.0204,0.0204,0.0204,0.0204,0.0213,0.0213,0.0214,0,0,0,0,0,0,0,0,0,0,0,0,0,0.0162,0.0147,0.0186,0.019,0.0191,0.02,0.0201,0.0201,0.0204,0.0204,0.0204,0.0204,0.0213,0.0213,0.0214,0.0219,0,0,0.0215,0.0215,0,0,0,0,0,0,0,0,0.0161,0.0164,0.019,0.019,0.0191,0.0201,0.019,0.0207,0.0204,0.0199,0.0204,0.0204,0.0209,0.021,0.0212,0.0219,0.0219,0.0215,0.0216,0.0216,0.0216,0,0,0,0,0,0,0,0.016,0.0163,0.0192,0.019,0.0191,0.0186,0.0188,0.0193,0.0204,0.0199,0.02,0.0202,0.0209,0.0212,0.0212,0.0219,0.0215,0.0216,0.0216,0.0216,0.0239,0.0239,0,0,0,0,0,0,0.016,0.0162,0.0191,0.0192,0.0176,0.0187,0.0189,0.0197,0.0204,0.0205,0.0202,0.0202,0.0211,0.0212,0.0213,0.0233,0.0216,0.0216,0.0216,0.0238,0.0239,0.0239,0,0,0,0,0,0,0.0159,0.0163,0.0191,0.0177,0.018,0.0188,0.0197,0.0198,0.0202,0.0206,0.0207,0.0205,0.0211,0.0212,0.0223,0.0233,0.0216,0.0217,0.0238,0.0239,0.0239,0.0264,0,0,0,0,0,0,0.0158,0.0163,0.0169,0.0177,0.0181,0.0201,0.0197,0.0198,0.0204,0.0204,0.0209,0.021,0.0211,0.0222,0.0223,0.0233,0.0217,0.0238,0.0238,0.0239,0.0263,0.0266,0.0268,0,0,0,0,0,0.0157,0.0168,0.0169,0.0173,0.019,0.0201,0.0203,0.0207,0.0204,0.021,0.0214,0.021,0.0227,0.0223,0.0224,0.0234,0.0237,0.0238,0.0239,0.0262,0.0265,0.0268,0,0,0,0,0,0,0.0152,0.017,0.0171,0.0186,0.0194,0.0202,0.0209,0.0208,0.0216,0.0217,0.0216,0.0218,0.023,0.0228,0.0224,0.0242,0.023,0.0231,0.0248,0.0251,0.0253,0.027,0.0218,0,0,0,0,0,0.0154,0.0169,0.0179,0.0191,0.0197,0.0202,0.0207,0.021,0.0217,0.022,0.0223,0.0227,0.0233,0.0239,0.0243,0.0255,0.0252,0.0261,0.0263,0.0265,0.0279,0.0281,0.0285,0.0242,0.0242,0.0242,0,0,0.0155,0.0167,0.0175,0.0191,0.0198,0.0214,0.0205,0.0216,0.023,0.022,0.0239,0.0236,0.0238,0.0252,0.0257,0.0252,0.0274,0.0266,0.0268,0.0281,0.0283,0.0287,0.0291,0.0242,0.0242,0.0242,0,0,0.0168,0.0176,0.0194,0.0203,0.0217,0.0222,0.0226,0.0236,0.0242,0.0257,0.0253,0.026,0.0267,0.0275,0.0278,0.0296,0.0285,0.029,0.032,0.0321,0.0325,0.0328,0.0321,0.0323,0.0293,0.0293,0.0293,0,0.0169,0.0195,0.0199,0.0218,0.0232,0.0228,0.025,0.0256,0.0267,0.0279,0.0268,0.0287,0.0283,0.0308,0.0311,0.0304,0.0297,0.0309,0.0325,0.0328,0.0331,0.0323,0.0325,0.0295,0.0294,0.0294,0.0294,0,0.0197,0.0217,0.0228,0.0255,0.0267,0.0285,0.0295,0.0306,0.0309,0.0316,0.0337,0.0332,0.0347,0.0339,0.0332,0.0352,0.0337,0.0326,0.0319,0.0338,0.0327,0.0329,0.0296,0.0296,0.0296,0.0295,0,0,0.0205,0.0242,0.0247,0.0269,0.029,0.0307,0.033,0.0356,0.0379,0.038,0.041,0.0411,0.0405,0.0409,0.0396,0.0395,0.04,0.0371,0.037,0.0366,0.0396,0.0385,0.0386,0.0388,0.0389,0.039,0.0376,0,0.0229,0.0273,0.0286,0.0329,0.0354,0.0363,0.0389,0.0409,0.042,0.0445,0.0442,0.0463,0.0432,0.044,0.0435,0.0413,0.0409,0.0404,0.0377,0.0377,0.0367,0.039,0.0397,0.0386,0.0378,0.0378,0.0379,0,0.0256,0.0285,0.0332,0.0378,0.039,0.0413,0.0459,0.0482,0.0509,0.0518,0.0534,0.0528,0.0536,0.0502,0.0481,0.0478,0.0444,0.0419,0.0418,0.0406,0.0371,0.0369,0.039,0.0382,0.0382,0.0382,0.0381,0,0.0271,0.0319,0.0361,0.0376,0.0423,0.0448,0.0474,0.0505,0.0539,0.0568,0.0593,0.0591,0.06,0.0564,0.051,0.0497,0.0478,0.0453,0.0412,0.041,0.0413,0.041,0.0442,0.0442,0.0442,0.0442,0.0442,0,0.0297,0.0331,0.0372,0.0397,0.045,0.0473,0.053,0.0552,0.0596,0.0644,0.0634,0.0663,0.0615,0.0596,0.0536,0.0485,0.0499,0.043,0.0414,0.042,0.0418,0.0412,0.0409,0.0441,0.0441,0.0441,0.0441,0,0.0312,0.0338,0.0389,0.0441,0.046,0.0499,0.0568,0.0609,0.0643,0.0705,0.0721,0.0725,0.0701,0.0645,0.0586,0.0526,0.0472,0.0447,0.0453,0.0438,0.0394,0.0392,0.0408,0.0407,0.0407,0.0407,0.0407,0,0.0326,0.0354,0.0418,0.0449,0.0476,0.0534,0.0577,0.0628,0.0676,0.0742,0.0775,0.0774,0.0777,0.0687,0.0595,0.0505,0.0479,0.0437,0.0418,0.0412,0.0394,0.0393,0.0392,0.0423,0.0423,0.0423,0.0423,0,0.0353,0.0374,0.0414,0.0475,0.0525,0.0588,0.0652,0.0697,0.0763,0.0812,0.086,0.0867,0.0801,0.0719,0.06,0.053,0.0453,0.0433,0.0438,0.043,0.0425,0.0408,0.0407,0.0423,0.0423,0.0423,0.0423,0.0423,0.0369,0.0397,0.0445,0.0503,0.0562,0.0633,0.0682,0.075,0.0826,0.0893,0.0901,0.0903,0.0829,0.0677,0.0576,0.046,0.0467,0.0407,0.0407,0.0408,0.0412,0.0407,0.0401,0.0401,0.0401,0.0401,0.0401,0,0.0386,0.0417,0.0469,0.0537,0.0596,0.0631,0.0726,0.0772,0.0849,0.0905,0.0939,0.0847,0.0777,0.0677,0.0521,0.043,0.0417,0.038,0.039,0.0391,0.0392,0.0395,0.038,0.0379,0.0379,0.0379,0,0,0.0396,0.0437,0.046,0.0547,0.0599,0.0674,0.0726,0.0798,0.0855,0.0889,0.089,0.0906,0.0808,0.0683,0.057,0.0478,0.0447,0.0447,0.0476,0.0504,0.0505,0.0422,0.043,0,0,0,0,0]}],[{"header":{"parameterUnit":"m.s-1","parameterCategory":2,"la1":30.2991,"la2":30.254,"lo1":-89.0895,"lo2":-89.0444,"dy":0.0017,"dx":0.0017,"nx":28,"ny":28,"refTime":"2023-08-26T21:00:00:Z","depth":"4","parameterNumber":2,"parameterNumberName":"U-component_of_CURRENTS"},"data":[0,0,0,0,0,0,0,0,0,0,0,0,0,0,0,0,0,0,0,0,0,0,0,0,0,0,0,0,0,0,0,0,0,0,0,0,0,0,0,0,0,0,0,0,0,0,0,0,0,0,0,0,0,0,0,0,0,0,0.0821,0.0821,0,0.0822,0.0822,0.0822,0.0841,0.0841,0.0842,0.0842,0.0881,0.0882,0.0882,0,0,0,0,0,0,0,0,0,0,0,0,0,0.0835,0.0835,0.0821,0.0821,0.0821,0.0822,0.0822,0.0822,0.0841,0.0841,0.0842,0.0843,0.0881,0.0882,0.0882,0,0,0,0,0,0,0,0,0,0,0,0,0,0.0832,0.0835,0.0821,0.0831,0.0832,0.0822,0.0822,0.0822,0.0841,0.0841,0.0842,0.0843,0.0881,0.0882,0.0883,0.0872,0,0,0.0885,0.0885,0,0,0,0,0,0,0,0,0.0832,0.0831,0.0829,0.083,0.0831,0.0832,0.0841,0.084,0.084,0.0837,0.0842,0.0843,0.0868,0.087,0.0867,0.0874,0.0875,0.0885,0.0886,0.0886,0.0886,0,0,0,0,0,0,0,0.0832,0.0831,0.0821,0.0829,0.083,0.0835,0.0835,0.0841,0.0848,0.0837,0.0839,0.0839,0.0869,0.0866,0.0869,0.0876,0.0885,0.0886,0.0886,0.0887,0.0936,0.0936,0,0,0,0,0,0,0.0832,0.0831,0.0821,0.0821,0.0834,0.0834,0.0835,0.0831,0.0848,0.0851,0.0838,0.084,0.0865,0.0868,0.087,0.0914,0.0886,0.0887,0.0887,0.0935,0.0936,0.0937,0,0,0,0,0,0,0.0832,0.083,0.0821,0.0827,0.0826,0.0833,0.0829,0.083,0.0848,0.0848,0.0852,0.0856,0.0865,0.0869,0.0895,0.0914,0.0887,0.0888,0.0934,0.0935,0.0936,0.0966,0,0,0,0,0,0,0.0832,0.083,0.0837,0.0826,0.0825,0.0825,0.0828,0.083,0.0846,0.0848,0.0865,0.0868,0.0866,0.0893,0.0895,0.0914,0.0889,0.0933,0.0934,0.0936,0.0964,0.0968,0.0972,0,0,0,0,0,0.0833,0.0831,0.0837,0.0837,0.0831,0.0825,0.0825,0.0833,0.0846,0.0852,0.087,0.0868,0.0904,0.0895,0.0897,0.0916,0.0932,0.0934,0.0936,0.0963,0.0968,0.0972,0,0,0,0,0,0,0.0839,0.0833,0.0839,0.0836,0.0838,0.0829,0.0836,0.0843,0.086,0.0872,0.0877,0.0881,0.0912,0.0909,0.0898,0.0935,0.0919,0.0921,0.0938,0.0943,0.0947,0.0953,0.0889,0,0,0,0,0,0.0844,0.0845,0.0839,0.0841,0.0842,0.0845,0.0849,0.0854,0.0862,0.0871,0.0886,0.0902,0.0917,0.0927,0.0938,0.0955,0.0957,0.097,0.0973,0.0977,0.0983,0.1013,0.102,0.0943,0.0943,0.0942,0,0,0.0847,0.0845,0.0846,0.0844,0.0847,0.0848,0.085,0.0858,0.087,0.0873,0.0905,0.0919,0.0926,0.0949,0.0962,0.0951,0.0997,0.0979,0.0982,0.0987,0.1016,0.1023,0.103,0.0944,0.0944,0.0943,0,0,0.0849,0.0854,0.0856,0.0858,0.0866,0.0863,0.0871,0.0877,0.0893,0.0917,0.0927,0.0955,0.0974,0.0983,0.0989,0.102,0.1019,0.1027,0.1048,0.1077,0.1084,0.109,0.1088,0.1094,0.1025,0.1025,0.1025,0,0.0858,0.0855,0.0857,0.0861,0.0866,0.0873,0.0878,0.0889,0.0908,0.0928,0.0934,0.0983,0.0989,0.1018,0.1031,0.1029,0.1038,0.1029,0.1082,0.1088,0.1094,0.1091,0.1097,0.1027,0.1027,0.1026,0.1026,0,0.0856,0.0863,0.0865,0.0872,0.0879,0.0883,0.0894,0.0917,0.0941,0.0955,0.1004,0.1018,0.1049,0.1054,0.1052,0.1096,0.1086,0.1086,0.1071,0.1104,0.1098,0.1104,0.1029,0.1029,0.1028,0.1028,0,0,0.0851,0.0861,0.0866,0.0873,0.0886,0.0888,0.0916,0.0938,0.0965,0.0999,0.104,0.107,0.1093,0.1101,0.1109,0.113,0.117,0.1129,0.113,0.1127,0.1221,0.1111,0.1106,0.1188,0.1189,0.119,0.1196,0,0.0851,0.0858,0.0866,0.088,0.0882,0.0904,0.0926,0.0956,0.0987,0.1029,0.1063,0.1104,0.1105,0.1131,0.1156,0.1172,0.1189,0.1167,0.119,0.119,0.1088,0.1111,0.1195,0.12,0.1201,0.1202,0.1203,0,0.0843,0.085,0.0863,0.0884,0.0889,0.0906,0.0949,0.0971,0.1029,0.1061,0.1114,0.1142,0.1189,0.1185,0.1232,0.1223,0.1229,0.1233,0.1233,0.1126,0.1091,0.1164,0.1212,0.1212,0.1211,0.121,0.121,0,0.0828,0.0846,0.0857,0.0864,0.089,0.0917,0.094,0.099,0.1018,0.1093,0.1124,0.1184,0.1218,0.125,0.1263,0.126,0.1301,0.1294,0.1196,0.1188,0.1272,0.1266,0.1329,0.1329,0.1329,0.1329,0.1329,0,0.0809,0.082,0.0856,0.0863,0.0887,0.0916,0.0956,0.0993,0.105,0.1083,0.1147,0.1175,0.1242,0.127,0.1279,0.1246,0.1316,0.12,0.1187,0.1282,0.1277,0.1275,0.1269,0.133,0.133,0.133,0.1329,0,0.078,0.0802,0.0819,0.0862,0.0879,0.0902,0.0957,0.0981,0.1044,0.1091,0.112,0.1184,0.1215,0.1252,0.1292,0.1246,0.1238,0.1211,0.1296,0.1287,0.1099,0.1095,0.1096,0.1092,0.1089,0.1087,0.1084,0,0.076,0.0767,0.0818,0.0832,0.0855,0.0894,0.0917,0.0979,0.1001,0.1079,0.1091,0.1148,0.1183,0.1144,0.1189,0.1185,0.1173,0.1148,0.1134,0.1092,0.1079,0.1079,0.1078,0.1079,0.1079,0.1078,0.1077,0,0.0728,0.0758,0.0775,0.0804,0.0834,0.0849,0.0889,0.0898,0.0965,0.1032,0.104,0.1047,0.1068,0.1081,0.1084,0.1083,0.1154,0.1115,0.1122,0.1108,0.1071,0.1061,0.1065,0.1066,0.1068,0.1069,0.1069,0,0.0715,0.0717,0.075,0.0764,0.0797,0.0793,0.0817,0.0835,0.0862,0.0948,0.0947,0.1003,0.1063,0.1026,0.1031,0.1016,0.0996,0.0952,0.0967,0.0979,0.0936,0.0872,0.0793,0,0,0,0,0,0.0697,0.0691,0.0702,0.0711,0.0738,0.0754,0.0791,0.0814,0.0883,0.0864,0.0902,0.0919,0.0912,0.0932,0.0893,0.0966,0.0998,0.0912,0.0955,0.1005,0.1018,0.0976,0,0,0,0,0,0,0.0683,0.0698,0.0686,0.0665,0.0661,0.0677,0.0698,0.0737,0.0725,0.0801,0.0807,0.0854,0.0868,0.0939,0.0879,0.0883,0.0883,0.0945,0.0942,0.0998,0.1009,0.102,0.0981,0,0,0,0,0]},{"header":{"parameterUnit":"m.s-1","parameterCategory":2,"la1":30.2991,"la2":30.254,"lo1":-89.0895,"lo2":-89.0444,"dy":0.0017,"dx":0.0017,"nx":28,"ny":28,"refTime":"2023-08-26T21:00:00:Z","depth":"4","parameterNumber":3,"parameterNumberName":"V-component_of_CURRENTS"},"data":[0,0,0,0,0,0,0,0,0,0,0,0,0,0,0,0,0,0,0,0,0,0,0,0,0,0,0,0,0,0,0,0,0,0,0,0,0,0,0,0,0,0,0,0,0,0,0,0,0,0,0,0,0,0,0,0,0,0,0.0156,0.0156,0,0.0174,0.0175,0.0175,0.0183,0.0183,0.0183,0.0183,0.0202,0.0203,0.0203,0,0,0,0,0,0,0,0,0,0,0,0,0,0.0119,0.012,0.0155,0.0156,0.0156,0.0174,0.0175,0.0175,0.0183,0.0183,0.0183,0.0183,0.0202,0.0203,0.0203,0,0,0,0,0,0,0,0,0,0,0,0,0,0.0136,0.012,0.0155,0.0162,0.0163,0.0174,0.0175,0.0175,0.0183,0.0183,0.0183,0.0183,0.0202,0.0203,0.0203,0.0209,0,0,0.0206,0.0206,0,0,0,0,0,0,0,0,0.0135,0.0137,0.0161,0.0162,0.0163,0.0176,0.0169,0.0186,0.0183,0.0175,0.0183,0.0183,0.0194,0.0195,0.0199,0.021,0.021,0.0206,0.0206,0.0207,0.0207,0,0,0,0,0,0,0,0.0134,0.0137,0.0163,0.0161,0.0162,0.0162,0.0164,0.0172,0.0184,0.0176,0.0177,0.0179,0.0194,0.0198,0.0199,0.0211,0.0206,0.0207,0.0207,0.0207,0.0234,0.0234,0,0,0,0,0,0,0.0132,0.0136,0.0162,0.0163,0.0149,0.0163,0.0165,0.0172,0.0184,0.0186,0.0179,0.0179,0.0196,0.0198,0.02,0.022,0.0207,0.0207,0.0208,0.0234,0.0234,0.0234,0,0,0,0,0,0,0.0132,0.0135,0.0161,0.015,0.0153,0.0164,0.0171,0.0172,0.018,0.0187,0.0188,0.0185,0.0197,0.0199,0.0212,0.022,0.0208,0.0209,0.0234,0.0234,0.0234,0.0251,0,0,0,0,0,0,0.0131,0.0135,0.0141,0.015,0.0154,0.0171,0.0171,0.0173,0.0181,0.0182,0.0192,0.0194,0.0197,0.0211,0.0213,0.0221,0.0209,0.0233,0.0234,0.0234,0.0251,0.0252,0.0254,0,0,0,0,0,0.0129,0.0138,0.0141,0.0144,0.0162,0.0172,0.0174,0.018,0.0181,0.0187,0.0194,0.0194,0.0215,0.0212,0.0214,0.0223,0.0233,0.0234,0.0234,0.025,0.0252,0.0254,0,0,0,0,0,0,0.0125,0.014,0.0144,0.0157,0.0165,0.0173,0.018,0.0183,0.0193,0.0195,0.0199,0.0202,0.0215,0.0216,0.0212,0.0231,0.0223,0.0224,0.0234,0.0236,0.0238,0.0241,0.021,0,0,0,0,0,0.0127,0.0139,0.015,0.016,0.0165,0.0173,0.0178,0.0183,0.0192,0.0196,0.0203,0.0211,0.0218,0.0225,0.0231,0.0244,0.0234,0.0249,0.0251,0.0252,0.0256,0.0244,0.0245,0.0236,0.0236,0.0236,0,0,0.0129,0.0138,0.0145,0.016,0.0167,0.018,0.0176,0.0187,0.0199,0.0197,0.0216,0.0217,0.0223,0.0236,0.0242,0.0239,0.0249,0.0253,0.0254,0.0257,0.0245,0.0246,0.0247,0.0237,0.0236,0.0236,0,0,0.0137,0.0146,0.0159,0.0168,0.0181,0.0187,0.0191,0.0202,0.0209,0.0226,0.0225,0.0231,0.0247,0.0251,0.0255,0.0269,0.0257,0.0269,0.0284,0.0272,0.0273,0.0273,0.0259,0.0258,0.0272,0.0272,0.0272,0,0.0138,0.0158,0.0163,0.0178,0.019,0.0192,0.0208,0.0216,0.023,0.0237,0.0235,0.0252,0.0254,0.0269,0.0274,0.0273,0.0262,0.0277,0.0274,0.0275,0.0275,0.026,0.0258,0.0273,0.0273,0.0273,0.0272,0,0.0157,0.0173,0.0181,0.0203,0.0215,0.0229,0.024,0.0251,0.0258,0.0264,0.0278,0.0278,0.0289,0.0288,0.0287,0.0292,0.0282,0.0276,0.0269,0.0277,0.026,0.0259,0.0274,0.0274,0.0273,0.0273,0,0,0.0159,0.0189,0.0193,0.021,0.0231,0.0244,0.0263,0.0282,0.0297,0.0302,0.0319,0.0325,0.032,0.0323,0.0318,0.0308,0.0297,0.0295,0.0294,0.028,0.0268,0.0266,0.0264,0.0289,0.0289,0.0289,0.0255,0,0.0174,0.0206,0.0218,0.0252,0.027,0.0281,0.0301,0.0316,0.0326,0.0341,0.0336,0.035,0.0335,0.0341,0.0328,0.0307,0.0294,0.0307,0.0264,0.0262,0.0259,0.0263,0.0289,0.0254,0.0254,0.0253,0.0253,0,0.0191,0.0211,0.0246,0.0282,0.0292,0.0312,0.0344,0.0362,0.0377,0.0384,0.0388,0.0383,0.0379,0.0361,0.0326,0.0334,0.0304,0.0282,0.028,0.0272,0.0257,0.0246,0.025,0.025,0.025,0.0251,0.0251,0,0.0195,0.0233,0.0264,0.0276,0.0313,0.0334,0.0355,0.0376,0.0398,0.0412,0.0425,0.0412,0.0413,0.0373,0.0332,0.0327,0.0285,0.0272,0.0241,0.024,0.0244,0.0244,0.0243,0.0243,0.0243,0.0243,0.0243,0,0.0208,0.0233,0.027,0.0288,0.0327,0.0349,0.0389,0.0405,0.0432,0.046,0.0449,0.0458,0.0415,0.0388,0.034,0.0289,0.0291,0.0245,0.0233,0.0251,0.0252,0.0242,0.0242,0.0242,0.0242,0.0242,0.0243,0,0.021,0.0234,0.0271,0.0314,0.0332,0.036,0.0415,0.0441,0.0463,0.0498,0.0506,0.0495,0.0463,0.0414,0.0352,0.0306,0.0253,0.0233,0.0259,0.0249,0.021,0.0212,0.019,0.019,0.019,0.0189,0.0189,0,0.0215,0.0234,0.0287,0.0312,0.0335,0.0382,0.0416,0.0455,0.0484,0.0519,0.0533,0.0519,0.0504,0.0413,0.0356,0.0269,0.0254,0.0218,0.0211,0.0215,0.0205,0.0208,0.0209,0.0189,0.0189,0.0189,0.0189,0,0.0221,0.024,0.027,0.0319,0.0361,0.0409,0.0459,0.0482,0.0529,0.0549,0.0556,0.0521,0.0485,0.0413,0.0354,0.0288,0.0236,0.0215,0.0215,0.0207,0.0213,0.0204,0.0206,0.0188,0.0188,0.0188,0.0188,0,0.0225,0.0242,0.0281,0.0326,0.0377,0.0424,0.0451,0.0491,0.0523,0.0563,0.0561,0.053,0.0514,0.0423,0.0364,0.0307,0.0283,0.0245,0.0243,0.0243,0.0269,0.0284,0.0273,0,0,0,0,0,0.0229,0.0248,0.0286,0.0335,0.0385,0.0417,0.0476,0.0501,0.0545,0.0553,0.0561,0.053,0.0455,0.0418,0.036,0.0349,0.0267,0.0275,0.022,0.0183,0.0184,0.0205,0,0,0,0,0,0,0.023,0.0262,0.0281,0.0337,0.0371,0.0429,0.0467,0.0498,0.0501,0.0533,0.0493,0.0495,0.042,0.0487,0.0352,0.0336,0.0288,0.0249,0.0247,0.0182,0.0183,0.0184,0.0206,0,0,0,0,0]}]]